Location: Gammelsbach
(49.5261°N, 8.9630°E)
Time: 21:12:47
(UTC+00:00)

Cosmos 2251 Rocket - Pass Details

Date: 17 June 2025
Orbit: 761 x 788 km, 74.0° (Epoch: 16 July)

Event Time Altitude Azimuth Distance (km) Brightness Sun altitude
Exits shadow 22:54:48 15° 221° (SW) 2,012 5.3 -16.8°
Maximum altitude 22:59:10 58° 298° (WNW) 913 4.0 -16.8°
Drops below altitude 10° 23:04:28 10° 18° (NNE) 2,361 7.1 -16.9°
Sets 23:06:56 0° 22° (NNE) 3,295 7.9 -17.0°
